KK4XZ Weather Reports


Display with metric or nautical units.
time (UTC)temp
F
wind
direction
speed
MPH
gust
MPH
rain 1hr
in
rain 24hr
in
rain mn
in
humidity
%
barometer
mb
20260505185527 76 244 3.0 6.0 0.00 0.00 0.00 58 1017.8
20260505184522 76 218 4.0 10.0 0.00 0.00 0.00 58 1017.7
20260505183517 76 217 4.0 7.0 0.00 0.00 0.00 58 1018.0
20260505182533 74 199 3.0 8.0 0.00 0.00 0.00 61 1018.1
20260505181529 74 196 4.0 9.0 0.00 0.00 0.00 59 1018.2
20260505180523 75 212 4.0 8.0 0.00 0.00 0.00 60 1018.1
20260505175517 74 226 3.0 6.0 0.00 0.00 0.00 62 1018.3
20260505174533 74 190 4.0 9.0 0.00 0.00 0.00 60 1018.4
20260505173528 75 202 4.0 8.0 0.00 0.00 0.00 58 1018.2
20260505172523 74 200 3.0 8.0 0.00 0.00 0.00 57 1018.5
20260505171518 75 216 3.0 6.0 0.00 0.00 0.00 57 1018.5
20260505170534 75 196 4.0 8.0 0.00 0.00 0.00 56 1018.7
20260505165529 75 219 3.0 7.0 0.00 0.00 0.00 57 1018.6
20260505164523 74 188 3.0 7.0 0.00 0.00 0.00 57 1018.7
20260505163518 76 185 5.0 9.0 0.00 0.00 0.00 55 1018.7
20260505162534 76 205 3.0 8.0 0.00 0.00 0.00 55 1018.7
20260505161529 75 172 5.0 10.0 0.00 0.00 0.00 57 1018.8
20260505160524 74 179 3.0 7.0 0.00 0.00 0.00 58 1018.9
20260505152525 74 200 2.0 6.0 0.00 0.00 0.00 59 1019.0
20260505151520 74 208 2.0 4.0 0.00 0.00 0.00 59 1018.9
20260505150535 74 199 3.0 7.0 0.00 0.00 0.00 59 1018.9
20260505140527 72 191 2.0 6.0 0.00 0.00 0.00 64 1018.6
20260505124528 68 176 3.0 6.0 0.00 0.00 0.00 77 1018.4
20260505123524 65 165 3.0 6.0 0.00 0.00 0.00 89 1018.3
20260505122518 64 150 1.0 4.0 0.00 0.00 0.00 96 1018.1
20260505121534 61 150 2.0 4.0 0.00 0.00 0.00 96 1018.2
20260505120529 60 124 1.0 4.0 0.00 0.00 0.00 96 1018.3
20260505115524 59 111 1.0 3.0 0.00 0.00 0.00 97 1018.2
20260505114520 59 118 1.0 3.0 0.00 0.00 0.00 96 1018.2
20260505113535 58 114 1.0 3.0 0.00 0.00 0.00 96 1018.1
20260505112530 57 101 1.0 3.0 0.00 0.00 0.00 96 1017.9
20260505111525 57 86 1.0 3.0 0.00 0.00 0.00 96 1017.7
20260505110521 56 102 1.0 3.0 0.00 0.00 0.00 96 1017.6
20260505101516 56 100 2.0 4.0 0.00 0.00 0.00 95 1017.1
20260505100532 57 110 1.0 3.0 0.00 0.00 0.00 94 1017.0
20260505095527 57 116 2.0 4.0 0.00 0.00 0.00 94 1017.0
20260505094522 57 128 2.0 4.0 0.00 0.00 0.00 94 1016.9
20260505093517 58 126 1.0 4.0 0.00 0.00 0.00 94 1016.9
20260505092532 58 44 2.0 4.0 0.00 0.00 0.00 94 1016.7
20260505091527 58 51 2.0 4.0 0.00 0.00 0.00 94 1016.6
20260505090524 58 82 1.0 4.0 0.00 0.00 0.00 93 1016.4
20260505085518 58 79 2.0 5.0 0.00 0.00 0.00 92 1016.5
20260505084533 59 130 2.0 5.0 0.00 0.00 0.00 92 1016.5
20260505083528 59 42 2.0 3.0 0.00 0.00 0.00 91 1016.3
20260505082523 59 38 2.0 4.0 0.00 0.00 0.00 90 1016.5
20260505081518 60 117 1.0 4.0 0.00 0.00 0.00 89 1016.4
20260505080534 60 137 1.0 3.0 0.00 0.00 0.00 88 1016.3
20260505075529 61 137 0.0 1.0 0.00 0.00 0.00 88 1016.3
20260505074524 61 87 0.0 1.0 0.00 0.00 0.00 87 1016.3
20260505073520 61 0.0 0.0 0.00 0.00 0.00 86 1016.3
20260505072534 62 74 0.0 2.0 0.00 0.00 0.00 84 1016.4
20260505071529 63 104 0.0 1.0 0.00 0.00 0.00 82 1016.4
20260505070525 63 146 0.0 2.0 0.00 0.00 0.00 81 1016.4
20260505065520 63 127 0.0 3.0 0.00 0.00 0.00 81 1016.3
20260505064535 64 158 1.0 4.0 0.00 0.00 0.00 79 1016.4
20260505063530 64 151 1.0 3.0 0.00 0.00 0.00 79 1016.6
20260505062525 64 138 0.0 3.0 0.00 0.00 0.00 78 1016.7
20260505061520 64 156 1.0 3.0 0.00 0.00 0.00 77 1016.8
20260505060535 65 154 1.0 3.0 0.00 0.00 0.00 76 1016.8
20260505055531 65 170 1.0 3.0 0.00 0.00 0.00 76 1017.0
20260505054525 65 164 2.0 4.0 0.00 0.00 0.00 75 1017.1
20260505053521 65 166 2.0 4.0 0.00 0.00 0.00 75 1017.2
20260505052536 65 163 2.0 3.0 0.00 0.00 0.00 74 1017.2
20260505051531 65 173 1.0 4.0 0.00 0.00 0.00 74 1017.3
20260505050526 65 175 2.0 5.0 0.00 0.00 0.00 74 1017.3
20260505041522 65 172 2.0 5.0 0.00 0.00 0.00 71 1017.4
20260505040517 65 171 1.0 4.0 0.00 0.00 0.00 71 1017.4
20260505035532 65 165 2.0 4.0 0.00 0.00 0.00 70 1017.3
20260505034527 66 168 2.0 4.0 0.00 0.00 0.00 69 1017.4
20260505033523 66 169 1.0 3.0 0.00 0.00 0.00 67 1017.4
20260505032518 66 169 2.0 6.0 0.00 0.00 0.00 67 1017.3
20260505031533 66 174 2.0 5.0 0.00 0.00 0.00 66 1017.4
20260505030528 66 172 2.0 5.0 0.00 0.00 0.00 66 1017.3
20260505025523 66 175 2.0 6.0 0.00 0.00 0.00 66 1017.3
20260505024518 66 161 1.0 4.0 0.00 0.00 0.00 66 1017.6
20260505023534 67 180 1.0 3.0 0.00 0.00 0.00 65 1017.6
20260505022528 66 178 2.0 5.0 0.00 0.00 0.00 64 1017.6
20260505021523 67 189 3.0 6.0 0.00 0.00 0.00 64 1017.5
20260505020519 66 170 2.0 4.0 0.00 0.00 0.00 64 1017.6
20260505015534 67 185 2.0 5.0 0.00 0.00 0.00 63 1017.5
20260505014529 67 178 2.0 8.0 0.00 0.00 0.00 63 1017.2
20260505013525 67 171 2.0 5.0 0.00 0.00 0.00 62 1017.1
20260505012520 67 183 3.0 7.0 0.00 0.00 0.00 62 1017.1
20260505011535 67 178 3.0 6.0 0.00 0.00 0.00 62 1017.0
20260505010530 67 174 2.0 8.0 0.00 0.00 0.00 62 1016.9
20260505005525 66 177 2.0 5.0 0.00 0.00 0.00 62 1016.8
20260505004521 67 191 2.0 4.0 0.00 0.00 0.00 61 1016.7
20260505003536 67 178 2.0 5.0 0.00 0.00 0.00 60 1016.7
20260505002531 67 170 2.0 6.0 0.00 0.00 0.00 59 1016.8
20260505001526 67 180 3.0 6.0 0.00 0.00 0.00 60 1016.6
20260505000521 67 181 2.0 6.0 0.00 0.00 0.00 61 1016.5
20260504235516 67 181 3.0 9.0 0.00 0.00 0.00 61 1016.7
20260504234531 67 180 2.0 6.0 0.00 0.00 0.00 62 1016.5
20260504233527 68 181 3.0 7.0 0.00 0.00 0.00 63 1016.4
20260504232521 68 195 2.0 5.0 0.00 0.00 0.00 61 1016.4
20260504231516 68 181 3.0 8.0 0.00 0.00 0.00 60 1016.5
20260504230531 68 193 3.0 7.0 0.00 0.00 0.00 58 1016.4
20260504225527 69 192 3.0 7.0 0.00 0.00 0.00 59 1016.4
20260504224522 69 193 3.0 7.0 0.00 0.00 0.00 59 1016.5
20260504223517 69 190 4.0 10.0 0.00 0.00 0.00 58 1016.4
20260504222532 69 200 4.0 9.0 0.00 0.00 0.00 57 1016.4
20260504221527 70 195 4.0 9.0 0.00 0.00 0.00 56 1016.4
20260504220523 70 188 2.0 5.0 0.00 0.00 0.00 59 1016.4
20260504215518 70 205 3.0 8.0 0.00 0.00 0.00 59 1016.3
20260504214533 70 193 4.0 8.0 0.00 0.00 0.00 56 1016.4
20260504213528 70 200 4.0 8.0 0.00 0.00 0.00 56 1016.5
20260504212524 70 187 3.0 8.0 0.00 0.00 0.00 56 1016.5
20260504211519 71 205 3.0 6.0 0.00 0.00 0.00 57 1016.5
20260504210534 71 202 3.0 6.0 0.00 0.00 0.00 56 1016.5
20260504205529 71 200 5.0 10.0 0.00 0.00 0.00 55 1016.6
20260504204524 72 190 4.0 11.0 0.00 0.00 0.00 55 1016.5
20260504203519 72 199 4.0 8.0 0.00 0.00 0.00 55 1016.6
20260504202534 71 200 5.0 14.0 0.00 0.00 0.00 54 1016.6
20260504201530 72 202 5.0 14.0 0.00 0.00 0.00 53 1016.8
20260504200525 73 214 3.0 7.0 0.00 0.00 0.00 53 1016.7
20260504195520 73 192 3.0 7.0 0.00 0.00 0.00 54 1016.8
20260504194535 73 204 3.0 8.0 0.00 0.00 0.00 54 1017.0
20260504193531 73 221 3.0 5.0 0.00 0.00 0.00 54 1017.2
20260504192526 73 204 4.0 8.0 0.00 0.00 0.00 56 1017.4
20260504191521 73 217 3.0 9.0 0.00 0.00 0.00 56 1017.3
20260504190516 73 194 4.0 9.0 0.00 0.00 0.00 55 1017.5